Hamilton Island, Australia

5:50 PM AEST on July 25, 2017 (GMT +1000)
Hamilton Island

Weather History for YBHM - June, 2014

Change the Weather History Date:

Monday, June 9, 2014

  Actual Average Record
Temperature  
Mean Temperature 66 °F -  
Max Temperature 69 °F - - ()
Min Temperature 63 °F - - ()
Cooling Degree Days 1    
Growing Degree Days 16 (Base 50)    
Moisture  
Dew Point 65 °F    
Average Humidity 92    
Maximum Humidity 100    
Minimum Humidity 78    
Precipitation  
Precipitation 2.32 in - - ()
Sea Level Pressure  
Sea Level Pressure 29.97 in    
Wind  
Wind Speed 25 mph ()    
Max Wind Speed 40 mph    
Max Gust Speed 46 mph    
Visibility 4.7 miles    
Events      
T = Trace of Precipitation, MM = Missing Value Source: Averaged Metar Reports

Daily Weather History Graph

Daily Weather History Graph

Search for Another Location

Airport or City:

Trip Planner

Search our weather history database for the weather conditions in past years. The results will help you decide how hot, cold, wet, or windy it might be!

Date:

Astronomy

Jun. 09, 2014 Rise Set
Actual Time 6:35 AM AEST 5:31 PM AEST
Civil Twilight 6:11 AM AEST 5:55 PM AEST
Nautical Twilight 5:44 AM AEST 6:22 PM AEST
Astronomical Twilight 5:16 AM AEST 6:49 PM AEST
Moon 2:17 PM AEST (6/9) 2:21 AM AEST (6/9)
Length of Visible Light 11h 43m
Length of Day
10h 55m
Waxing Gibbous, 80% of the Moon is Illuminated
Jun 9
Waxing Gibbous
Jun 13
Full
Jun 20
Last Quarter
Jun 27
New
Jul 5
First Quarter

Hourly Weather History & Observations

Time (AEST) Temp. Dew Point Humidity Pressure Visibility Wind Dir Wind Speed Gust Speed Precip Events Conditions
12:00 AM 68 °F 65 °F 87% 30.01 in - SE 20.7 mph - -   Overcast
12:00 AM 68.0 °F 64.4 °F 88% 30.01 in 6.2 mi SE 20.7 mph - N/A   Overcast
12:19 AM 69.8 °F 64.4 °F 83% 29.98 in 6.2 mi SE 25.3 mph - N/A   Overcast
12:30 AM 69.8 °F 64.4 °F 83% 29.98 in 6.2 mi ESE 26.5 mph - N/A   Overcast
1:00 AM 69.8 °F 62.6 °F 78% 30.01 in 6.2 mi SE 21.9 mph - N/A   Overcast
1:17 AM 68.0 °F 64.4 °F 88% 30.01 in 3.7 mi SSE 20.7 mph - N/A   Overcast
1:21 AM 66.2 °F 62.6 °F 88% 29.98 in - South 23.0 mph - N/A   Overcast
1:30 AM 64.4 °F 62.6 °F 94% 29.98 in - South 26.5 mph - N/A   Overcast
2:00 AM 64.4 °F 62.6 °F 94% 29.98 in 4.3 mi South 25.3 mph - N/A   Overcast
2:07 AM 64.4 °F 62.6 °F 94% 29.95 in 5.0 mi SSE 23.0 mph - N/A   Overcast
2:24 AM 64.4 °F 62.6 °F 94% 29.98 in 6.2 mi South 24.2 mph - N/A   Overcast
2:37 AM 66.2 °F 62.6 °F 88% 29.98 in 6.2 mi South 24.2 mph - N/A   Overcast
2:59 AM 66.2 °F 62.6 °F 88% 29.95 in 3.7 mi SSE 29.9 mph - N/A   Overcast
3:00 AM 66 °F 63 °F 88% 29.96 in 4 mi SSE 29.9 mph - -   Overcast
3:00 AM 66.2 °F 62.6 °F 88% 29.95 in 3.7 mi SSE 29.9 mph - N/A   Overcast
3:16 AM 66.2 °F 62.6 °F 88% 29.95 in 6.2 mi SSE 31.1 mph - N/A   Overcast
3:35 AM 66.2 °F 62.6 °F 88% 29.92 in 6.2 mi SSE 29.9 mph 41.4 mph N/A   Overcast
4:00 AM 66.2 °F 62.6 °F 88% 29.95 in 6.2 mi SSE 34.5 mph - N/A   Overcast
4:28 AM 66.2 °F 62.6 °F 88% 29.98 in 6.2 mi SSE 25.3 mph - N/A   Overcast
4:30 AM 66.2 °F 62.6 °F 88% 29.95 in 6.2 mi SSE 25.3 mph - N/A   Overcast
5:00 AM 68.0 °F 62.6 °F 83% 29.95 in 6.2 mi SSE 28.8 mph - N/A   Overcast
5:12 AM 68.0 °F 64.4 °F 88% 29.95 in 6.2 mi SSE 29.9 mph - N/A   Overcast
5:30 AM 68.0 °F 64.4 °F 88% 29.92 in 6.2 mi SE 33.4 mph - N/A   Mostly Cloudy
5:43 AM 68.0 °F 64.4 °F 88% 29.92 in 6.2 mi SE 34.5 mph - N/A   Mostly Cloudy
6:00 AM 69 °F 65 °F 83% 29.96 in - SE 28.8 mph - -  
6:00 AM 69.8 °F 64.4 °F 83% 29.95 in 6.2 mi SE 28.8 mph - N/A   Mostly Cloudy
6:30 AM 69.8 °F 64.4 °F 83% 29.95 in 6.2 mi SE 28.8 mph - N/A   Overcast
7:00 AM 69.8 °F 64.4 °F 83% 29.95 in 6.2 mi SE 29.9 mph - N/A   Overcast
7:27 AM 69.8 °F 66.2 °F 88% 29.95 in 6.2 mi SE 29.9 mph - N/A   Overcast
7:28 AM 69.8 °F 64.4 °F 83% 29.95 in 6.2 mi SE 29.9 mph - N/A   Overcast
7:30 AM 69.8 °F 64.4 °F 83% 29.95 in 6.2 mi SE 29.9 mph - N/A   Overcast
7:42 AM 69.8 °F 66.2 °F 88% 29.95 in 6.2 mi SE 31.1 mph - N/A   Overcast
7:57 AM 69.8 °F 64.4 °F 83% 29.98 in 6.2 mi SSE 25.3 mph - N/A   Overcast
8:00 AM 68.0 °F 64.4 °F 88% 29.98 in 6.2 mi South 25.3 mph - N/A   Overcast
8:07 AM 68.0 °F 64.4 °F 88% 29.98 in 3.7 mi South 24.2 mph - N/A   Overcast
8:11 AM 66.2 °F 64.4 °F 94% 29.98 in - SSE 25.3 mph 38.0 mph N/A   Overcast
8:30 AM 66.2 °F 64.4 °F 94% 30.01 in 5.6 mi South 29.9 mph - N/A   Overcast
8:33 AM 66.2 °F 64.4 °F 94% 30.01 in 6.2 mi South 27.6 mph - N/A   Overcast
9:00 AM 67 °F 64 °F 86% 30.01 in 4 mi SSE 27.6 mph - -   Overcast
9:00 AM 66.2 °F 64.4 °F 94% 30.01 in 4.3 mi SSE 27.6 mph - N/A   Overcast
9:05 AM 66.2 °F 64.4 °F 94% 30.01 in 5.0 mi SSE 26.5 mph - N/A   Overcast
9:30 AM 68.0 °F 64.4 °F 88% 30.01 in 6.2 mi SE 33.4 mph - N/A   Overcast
10:00 AM 68.0 °F 64.4 °F 88% 30.01 in 6.2 mi SSE 29.9 mph - N/A   Overcast
10:30 AM 68.0 °F 64.4 °F 88% 29.98 in 6.2 mi SE 32.2 mph - N/A   Overcast
10:47 AM 68.0 °F 64.4 °F 88% 29.98 in 6.2 mi SE 33.4 mph - N/A   Overcast
11:05 AM 68.0 °F 64.4 °F 88% 29.95 in 6.2 mi SSE 32.2 mph - N/A   Overcast
11:30 AM 68.0 °F 64.4 °F 88% 29.95 in 5.6 mi SE 32.2 mph - N/A   Overcast
11:40 AM 68.0 °F 64.4 °F 88% 29.95 in 3.7 mi SSE 33.4 mph - N/A   Overcast
12:00 PM 67 °F 65 °F 90% 29.98 in 2 mi SSE 32.2 mph - -  
12:00 PM 66.2 °F 64.4 °F 94% 29.98 in 1.9 mi SSE 32.2 mph - N/A   Overcast
12:23 PM 66.2 °F 66.2 °F 100% 29.98 in - SSE 25.3 mph 36.8 mph N/A   Overcast
12:30 PM 66.2 °F 66.2 °F 100% 29.98 in 2.2 mi SSE 27.6 mph 40.3 mph N/A   Overcast
1:00 PM 64.4 °F 64.4 °F 100% 29.95 in 1.8 mi SSE 24.2 mph - N/A   Overcast
1:30 PM 66.2 °F 66.2 °F 100% 29.92 in - SSE 31.1 mph - N/A   Overcast
1:43 PM 66.2 °F 64.4 °F 94% 29.95 in 5.6 mi SSE 26.5 mph - N/A   Overcast
2:00 PM 66.2 °F 64.4 °F 94% 29.92 in 6.2 mi SSE 26.5 mph - N/A   Overcast
2:26 PM 66.2 °F 66.2 °F 100% 29.92 in 3.7 mi SSE 21.9 mph - N/A   Overcast
2:30 PM 68.0 °F 66.2 °F 94% 29.92 in 3.1 mi SSE 21.9 mph - N/A   Overcast
3:00 PM 67 °F 66 °F 94% 29.93 in 3 mi SSE 24.2 mph - -   Overcast
3:00 PM 66.2 °F 66.2 °F 100% 29.92 in 3.1 mi SSE 24.2 mph - N/A   Overcast
3:10 PM 68.0 °F 66.2 °F 94% 29.92 in - SE 27.6 mph 39.1 mph N/A   Overcast
3:30 PM 68.0 °F 66.2 °F 94% 29.92 in 6.2 mi SE 33.4 mph - N/A   Overcast
4:00 PM 68.0 °F 64.4 °F 88% 29.95 in 6.2 mi SE 28.8 mph - N/A   Overcast
4:14 PM 68.0 °F 64.4 °F 88% 29.95 in 6.2 mi SSE 28.8 mph 43.7 mph N/A   Overcast
4:18 PM 68.0 °F 64.4 °F 88% 29.95 in 2.8 mi SE 31.1 mph 43.7 mph N/A   Overcast
4:30 PM 66.2 °F 66.2 °F 100% 29.95 in 1.2 mi SE 28.8 mph - N/A   Overcast
5:00 PM 66.2 °F 66.2 °F 100% 29.95 in 2.8 mi SE 29.9 mph - N/A   Overcast
5:30 PM 68.0 °F 66.2 °F 94% 29.95 in 3.1 mi ESE 24.2 mph - N/A   Overcast
5:36 PM 66.2 °F 66.2 °F 100% 29.95 in - ESE 24.2 mph - N/A   Overcast
6:00 PM 67 °F 67 °F 98% 29.96 in 3 mi ESE 25.3 mph - -   Overcast
6:00 PM 68.0 °F 66.2 °F 94% 29.95 in 3.1 mi ESE 25.3 mph - N/A   Overcast
6:12 PM 68.0 °F 66.2 °F 94% 29.98 in 6.2 mi SE 26.5 mph - N/A   Overcast
6:30 PM 68.0 °F 66.2 °F 94% 29.98 in 4.3 mi ESE 25.3 mph - N/A   Overcast
6:41 PM 68.0 °F 66.2 °F 94% 29.98 in 6.2 mi SE 24.2 mph - N/A   Overcast
6:48 PM 68.0 °F 66.2 °F 94% 29.95 in 6.2 mi SE 24.2 mph - N/A   Overcast
6:52 PM 68.0 °F 66.2 °F 94% 29.95 in 3.1 mi SE 26.5 mph - N/A   Overcast
7:00 PM 68.0 °F 66.2 °F 94% 29.98 in 1.9 mi ESE 26.5 mph - N/A   Overcast
7:05 PM 68.0 °F 66.2 °F 94% 29.98 in 2.2 mi ESE 20.7 mph 32.2 mph N/A   Overcast
7:20 PM 68.0 °F 66.2 °F 94% 29.98 in 6.2 mi SE 24.2 mph - N/A   Overcast
7:21 PM 68.0 °F 66.2 °F 94% 29.95 in 6.2 mi SE 25.3 mph - N/A   Overcast
7:30 PM 69.8 °F 66.2 °F 88% 29.98 in 6.2 mi SE 27.6 mph - N/A   Overcast
7:40 PM 69.8 °F 66.2 °F 88% 29.98 in 6.2 mi SE 27.6 mph - N/A   Overcast
7:51 PM 68.0 °F 66.2 °F 94% 29.98 in 3.7 mi SE 26.5 mph - N/A   Overcast
8:00 PM 68.0 °F 66.2 °F 94% 29.98 in - ESE 27.6 mph - N/A   Mostly Cloudy
8:28 PM 68.0 °F 66.2 °F 94% 30.01 in 3.1 mi ESE 20.7 mph - N/A   Overcast
8:30 PM 68.0 °F 66.2 °F 94% 30.01 in - ESE 20.7 mph - N/A   Overcast
8:46 PM 68.0 °F 66.2 °F 94% 30.01 in - SE 16.1 mph - N/A   Overcast
8:58 PM 68.0 °F 68.0 °F 100% 29.98 in - SE 19.6 mph 31.1 mph N/A   Overcast
9:00 PM 68 °F 67 °F 95% 30.00 in 2 mi SE 21.9 mph - -   Overcast
9:00 PM 68.0 °F 66.2 °F 94% 29.98 in - SE 21.9 mph 33.4 mph N/A   Overcast
9:30 PM 68.0 °F 68.0 °F 100% 29.98 in 3.7 mi SSE 27.6 mph - N/A   Overcast
9:44 PM 69.8 °F 68.0 °F 94% 29.98 in 5.0 mi SSE 28.8 mph - N/A   Overcast
9:48 PM 68.0 °F 68.0 °F 100% 29.98 in 3.7 mi SSE 29.9 mph - N/A   Overcast
10:00 PM 68.0 °F 68.0 °F 100% 29.98 in - SSE 32.2 mph - N/A   Overcast
10:20 PM 66.2 °F 66.2 °F 100% 29.98 in 2.5 mi SSE 27.6 mph 39.1 mph N/A   Overcast
10:30 PM 68.0 °F 66.2 °F 94% 29.98 in 0.9 mi SSE 27.6 mph 41.4 mph N/A   Overcast
10:40 PM 66.2 °F 66.2 °F 100% 29.95 in 0.9 mi SSE 40.3 mph - N/A   Overcast
11:00 PM 68.0 °F 66.2 °F 94% 29.95 in - SSE 36.8 mph - N/A   Overcast
11:23 PM 68.0 °F 68.0 °F 100% 29.95 in 3.1 mi SSE 31.1 mph 42.6 mph N/A   Overcast
11:30 PM 68.0 °F 66.2 °F 94% 29.95 in - SSE 35.7 mph - N/A   Overcast
11:34 PM 68.0 °F 66.2 °F 94% 29.95 in 1.9 mi SSE 34.5 mph 46.0 mph N/A   Overcast
11:58 PM 68.0 °F 66.2 °F 94% 29.95 in 6.2 mi SE 33.4 mph - N/A   Overcast